Location: *
(46.1833°N, 22.7667°E)
Time: 00:35:15
(UTC+00:00)

Cosmos 1441 Rocket - Pass Details

Date: 17 September 2019
Orbit: 496 x 542 km, 81.1° (Epoch: 13 October)

Event Time Altitude Azimuth Distance (km) Brightness Sun altitude
Rises 18:17:59 0° 206° (SSW) 2,632 6.8 -17.7°
Reaches altitude 10° 18:20:12 10° 213° (SSW) 1,741 6.0 -18.1°
Maximum altitude 18:23:51 42° 285° (WNW) 743 4.5 -18.7°
Drops below altitude 10° 18:27:28 10° 358° (N) 1,731 6.2 -19.2°
Sets 18:29:41 0° 5° (N) 2,615 7.0 -19.6°
